Time,TemperatureF,DewpointF,PressureIn,WindDirection,WindDirectionDegrees,WindSpeedMPH,WindSpeedGustMPH,Humidity,HourlyPrecipIn,Conditions,Clouds,dailyrainin,SoftwareType,DateUTC
2011-09-24 00:03:00,60.4,34.6,30.09,ENE,67,0.0,0.0,38,0.00,,,0.00,open2300-1.11,2011-09-24 06:03:00,
2011-09-24 00:18:00,60.1,35.7,30.09,ENE,67,1.8,4.2,40,0.00,,,0.00,open2300-1.11,2011-09-24 06:18:00,
2011-09-24 00:34:00,59.7,34.6,30.08,East,90,0.0,5.6,39,0.00,,,0.00,open2300-1.11,2011-09-24 06:34:00,
2011-09-24 00:48:00,59.5,34.5,30.08,East,90,4.5,4.5,39,0.00,,,0.00,open2300-1.11,2011-09-24 06:48:00,
2011-09-24 01:03:00,59.2,34.1,30.07,ENE,67,0.0,6.5,39,0.00,,,0.00,open2300-1.11,2011-09-24 07:03:00,
2011-09-24 01:18:00,58.8,33.8,30.07,ENE,67,2.5,2.5,39,0.00,,,0.00,open2300-1.11,2011-09-24 07:18:00,
2011-09-24 01:33:00,58.3,33.3,30.07,SSE,157,0.0,2.5,39,0.00,,,0.00,open2300-1.11,2011-09-24 07:33:00,
2011-09-24 01:48:00,57.7,33.6,30.06,SE,135,0.9,0.9,40,0.00,,,0.00,open2300-1.11,2011-09-24 07:48:00,
2011-09-24 02:03:00,57.6,33.4,30.06,SE,135,0.0,3.1,40,0.00,,,0.00,open2300-1.11,2011-09-24 08:03:00,
2011-09-24 02:18:00,57.7,33.6,30.06,South,180,0.0,0.0,40,0.00,,,0.00,open2300-1.11,2011-09-24 08:18:00,
2011-09-24 02:33:00,57.7,33.6,30.06,East,90,2.7,2.7,40,0.00,,,0.00,open2300-1.11,2011-09-24 08:33:00,
2011-09-24 02:48:00,57.7,33.6,30.06,SSE,157,0.0,3.4,40,0.00,,,0.00,open2300-1.11,2011-09-24 08:48:00,
2011-09-24 03:03:00,58.1,35.6,30.06,East,90,1.6,6.9,43,0.00,,,0.00,open2300-1.11,2011-09-24 09:03:00,
2011-09-24 03:18:00,58.1,36.2,30.07,ENE,67,0.9,8.1,44,0.00,,,0.00,open2300-1.11,2011-09-24 09:18:00,
2011-09-24 03:33:00,58.1,36.8,30.07,ENE,67,5.4,6.3,45,0.00,,,0.00,open2300-1.11,2011-09-24 09:33:00,
2011-09-24 03:48:00,57.9,36.6,30.07,NE,45,2.7,6.0,45,0.00,,,0.00,open2300-1.11,2011-09-24 09:48:00,
2011-09-24 04:03:00,57.7,37.0,30.07,East,90,5.6,6.5,46,0.00,,,0.00,open2300-1.11,2011-09-24 10:03:00,
2011-09-24 04:18:00,57.4,36.7,30.07,ENE,67,0.0,5.6,46,0.00,,,0.00,open2300-1.11,2011-09-24 10:18:00,
2011-09-24 04:33:00,57.0,35.8,30.07,East,90,6.3,9.8,45,0.00,,,0.00,open2300-1.11,2011-09-24 10:33:00,
2011-09-24 04:48:00,56.8,36.2,30.07,East,90,0.0,8.5,46,0.00,,,0.00,open2300-1.11,2011-09-24 10:48:00,
2011-09-24 05:03:00,56.5,35.8,30.07,ENE,67,4.7,7.8,46,0.00,,,0.00,open2300-1.11,2011-09-24 11:03:00,
2011-09-24 05:18:00,55.9,35.3,30.07,East,90,1.3,5.6,46,0.00,,,0.00,open2300-1.11,2011-09-24 11:18:00,
2011-09-24 05:33:00,55.6,35.5,30.07,East,90,8.5,8.5,47,0.00,,,0.00,open2300-1.11,2011-09-24 11:33:00,
2011-09-24 05:48:00,55.2,34.7,30.07,East,90,0.0,8.5,46,0.00,,,0.00,open2300-1.11,2011-09-24 11:48:00,
2011-09-24 06:03:00,54.7,34.2,30.07,SE,135,0.0,0.0,46,0.00,,,0.00,open2300-1.11,2011-09-24 12:03:00,
2011-09-24 06:18:00,54.3,33.8,30.08,ENE,67,1.1,4.7,46,0.00,,,0.00,open2300-1.11,2011-09-24 12:18:00,
2011-09-24 06:33:00,54.3,33.8,30.08,East,90,0.0,5.1,46,0.00,,,0.00,open2300-1.11,2011-09-24 12:33:00,
2011-09-24 06:48:00,54.0,33.5,30.08,ESE,112,0.0,0.7,46,0.00,,,0.00,open2300-1.11,2011-09-24 12:48:00,
2011-09-24 07:03:00,53.6,33.8,30.08,East,90,0.0,1.1,47,0.00,,,0.00,open2300-1.11,2011-09-24 13:03:00,
2011-09-24 07:18:00,53.2,33.4,30.08,SSE,157,0.0,0.0,47,0.00,,,0.00,open2300-1.11,2011-09-24 13:18:00,
2011-09-24 07:33:00,53.2,34.0,30.09,ENE,67,0.0,0.0,48,0.00,,,0.00,open2300-1.11,2011-09-24 13:33:00,
2011-09-24 07:48:00,52.9,33.7,30.10,SE,135,0.0,0.0,48,0.00,,,0.00,open2300-1.11,2011-09-24 13:48:00,
2011-09-24 08:03:00,52.9,34.8,30.09,East,90,3.8,4.7,50,0.00,,,0.00,open2300-1.11,2011-09-24 14:03:00,
2011-09-24 08:18:00,53.8,35.0,30.09,NE,45,0.0,7.6,49,0.00,,,0.00,open2300-1.11,2011-09-24 14:18:00,
2011-09-24 08:33:00,54.7,35.8,30.09,East,90,0.0,0.0,49,0.00,,,0.00,open2300-1.11,2011-09-24 14:33:00,
2011-09-24 08:48:00,55.2,35.8,30.09,East,90,0.0,0.0,48,0.00,,,0.00,open2300-1.11,2011-09-24 14:48:00,
2011-09-24 09:03:00,56.5,37.5,30.10,ENE,67,0.0,4.5,49,0.00,,,0.00,open2300-1.11,2011-09-24 15:03:00,
2011-09-24 09:18:00,57.6,37.4,30.10,ESE,112,0.0,0.0,47,0.00,,,0.00,open2300-1.11,2011-09-24 15:18:00,
2011-09-24 09:33:00,58.8,38.0,30.10,ENE,67,0.0,3.4,46,0.00,,,0.00,open2300-1.11,2011-09-24 15:33:00,
2011-09-24 09:48:00,60.1,38.5,30.10,ENE,67,0.0,3.6,45,0.00,,,0.00,open2300-1.11,2011-09-24 15:48:00,
2011-09-24 10:03:00,61.5,39.3,30.10,ENE,67,0.9,1.6,44,0.00,,,0.00,open2300-1.11,2011-09-24 16:03:00,
2011-09-24 10:18:00,63.0,40.0,30.10,SSE,157,0.0,0.9,43,0.00,,,0.00,open2300-1.11,2011-09-24 16:18:00,
2011-09-24 10:33:00,64.2,40.0,30.09,SE,135,0.0,0.0,41,0.00,,,0.00,open2300-1.11,2011-09-24 16:33:00,
2011-09-24 10:48:00,64.9,39.3,30.09,ESE,112,0.0,0.0,39,0.00,,,0.00,open2300-1.11,2011-09-24 16:48:00,
2011-09-24 11:03:00,66.2,39.7,30.08,WNW,292,0.0,0.0,38,0.00,,,0.00,open2300-1.11,2011-09-24 17:03:00,
2011-09-24 11:18:00,67.8,40.4,30.08,NW,315,0.0,2.7,37,0.00,,,0.00,open2300-1.11,2011-09-24 17:18:00,
2011-09-24 11:33:00,69.4,41.1,30.07,NNW,337,0.0,2.5,36,0.00,,,0.00,open2300-1.11,2011-09-24 17:33:00,
2011-09-24 11:48:00,70.5,40.6,30.08,NW,315,0.0,1.3,34,0.00,,,0.00,open2300-1.11,2011-09-24 17:48:00,
2011-09-24 12:03:00,71.4,40.0,30.06,West,270,0.0,3.4,32,0.00,,,0.00,open2300-1.11,2011-09-24 18:03:00,
2011-09-24 12:18:00,72.1,40.6,30.07,West,270,0.0,0.0,32,0.00,,,0.00,open2300-1.11,2011-09-24 18:18:00,
2011-09-24 12:33:00,73.2,40.0,30.06,WSW,247,0.0,1.8,30,0.00,,,0.00,open2300-1.11,2011-09-24 18:33:00,
2011-09-24 12:48:00,73.6,39.2,30.05,WNW,292,3.6,3.6,29,0.00,,,0.00,open2300-1.11,2011-09-24 18:48:00,
2011-09-24 13:03:00,75.7,40.1,30.05,WSW,247,1.3,3.6,28,0.00,,,0.00,open2300-1.11,2011-09-24 19:03:00,
2011-09-24 13:18:00,76.8,41.1,30.04,NW,315,0.0,3.1,28,0.00,,,0.00,open2300-1.11,2011-09-24 19:18:00,
2011-09-24 13:33:00,77.2,40.3,30.04,WNW,292,1.1,1.1,27,0.00,,,0.00,open2300-1.11,2011-09-24 19:33:00,
2011-09-24 13:48:00,77.7,39.7,30.02,West,270,0.0,1.1,26,0.00,,,0.00,open2300-1.11,2011-09-24 19:48:00,
2011-09-24 14:03:00,78.1,39.0,30.02,WSW,247,0.0,5.1,25,0.00,,,0.00,open2300-1.11,2011-09-24 20:03:00,
2011-09-24 14:18:00,78.6,38.4,30.02,WSW,247,0.0,0.0,24,0.00,,,0.00,open2300-1.11,2011-09-24 20:18:00,
2011-09-24 14:33:00,79.2,37.8,30.00,ENE,67,0.0,4.0,23,0.00,,,0.00,open2300-1.11,2011-09-24 20:33:00,
2011-09-24 14:48:00,79.5,38.1,30.00,WNW,292,0.0,2.5,23,0.00,,,0.00,open2300-1.11,2011-09-24 20:48:00,
2011-09-24 15:03:00,80.1,37.6,30.00,WSW,247,0.0,5.8,22,0.00,,,0.00,open2300-1.11,2011-09-24 21:03:00,
2011-09-24 15:18:00,80.8,37.2,30.00,WSW,247,0.0,0.2,21,0.00,,,0.00,open2300-1.11,2011-09-24 21:18:00,
2011-09-24 15:33:00,81.1,38.5,29.99,WNW,292,0.0,3.4,22,0.00,,,0.00,open2300-1.11,2011-09-24 21:33:00,
2011-09-24 15:48:00,82.0,38.2,29.99,West,270,0.0,2.9,21,0.00,,,0.00,open2300-1.11,2011-09-24 21:48:00,
2011-09-24 16:03:00,82.4,38.4,29.99,NW,315,4.2,4.9,21,0.00,,,0.00,open2300-1.11,2011-09-24 22:03:00,
2011-09-24 16:18:00,82.6,38.6,29.98,WNW,292,0.0,4.2,21,0.00,,,0.00,open2300-1.11,2011-09-24 22:18:00,
2011-09-24 16:33:00,82.6,37.5,29.98,WSW,247,3.1,4.2,20,0.00,,,0.00,open2300-1.11,2011-09-24 22:33:00,
2011-09-24 16:48:00,82.9,37.8,29.98,West,270,0.0,3.1,20,0.00,,,0.00,open2300-1.11,2011-09-24 22:48:00,
2011-09-24 17:03:00,82.8,37.7,29.97,WNW,292,0.0,4.5,20,0.00,,,0.00,open2300-1.11,2011-09-24 23:03:00,
2011-09-24 17:18:00,84.7,39.3,29.97,WNW,292,0.0,1.8,20,0.00,,,0.00,open2300-1.11,2011-09-24 23:18:00,
2011-09-24 17:33:00,86.9,39.4,29.97,WNW,292,0.0,5.6,19,0.00,,,0.00,open2300-1.11,2011-09-24 23:33:00,
2011-09-24 17:48:00,83.5,36.5,29.97,WSW,247,0.0,1.6,19,0.00,,,0.00,open2300-1.11,2011-09-24 23:48:00,
2011-09-24 18:03:00,81.0,36.2,29.97,West,270,0.0,0.0,20,0.00,,,0.00,open2300-1.11,2011-09-25 00:03:00,
2011-09-24 18:18:00,79.7,35.2,29.96,West,270,0.0,0.0,20,0.00,,,0.00,open2300-1.11,2011-09-25 00:18:00,
2011-09-24 18:33:00,78.8,35.4,29.96,WNW,292,0.0,1.3,21,0.00,,,0.00,open2300-1.11,2011-09-25 00:33:00,
2011-09-24 18:48:00,77.5,36.5,29.96,WNW,292,0.0,0.0,23,0.00,,,0.00,open2300-1.11,2011-09-25 00:48:00,
2011-09-24 19:03:00,76.3,36.5,29.96,WNW,292,0.0,0.0,24,0.00,,,0.00,open2300-1.11,2011-09-25 01:03:00,
2011-09-24 19:18:00,75.0,36.4,29.96,WNW,292,0.0,0.0,25,0.00,,,0.00,open2300-1.11,2011-09-25 01:18:00,
2011-09-24 19:33:00,73.6,36.2,29.96,WNW,292,0.0,0.0,26,0.00,,,0.00,open2300-1.11,2011-09-25 01:33:00,
2011-09-24 19:48:00,71.8,37.8,29.97,WNW,292,0.0,0.0,29,0.00,,,0.00,open2300-1.11,2011-09-25 01:48:00,
2011-09-24 20:03:00,70.0,37.9,29.97,WNW,292,0.0,0.0,31,0.00,,,0.00,open2300-1.11,2011-09-25 02:03:00,
2011-09-24 20:18:00,68.4,37.2,29.97,WNW,292,0.0,0.0,32,0.00,,,0.00,open2300-1.11,2011-09-25 02:18:00,
2011-09-24 20:33:00,66.9,36.7,29.97,WNW,292,0.0,0.0,33,0.00,,,0.00,open2300-1.11,2011-09-25 02:33:00,
2011-09-24 20:48:00,65.8,36.5,29.97,WNW,292,0.0,0.0,34,0.00,,,0.00,open2300-1.11,2011-09-25 02:48:00,
2011-09-24 21:03:00,64.8,35.6,29.97,WNW,292,0.0,0.0,34,0.00,,,0.00,open2300-1.11,2011-09-25 03:03:00,
2011-09-24 21:18:00,63.7,34.6,29.97,WNW,292,0.0,0.0,34,0.00,,,0.00,open2300-1.11,2011-09-25 03:18:00,
2011-09-24 21:33:00,63.3,34.3,29.97,WNW,292,0.0,0.0,34,0.00,,,0.00,open2300-1.11,2011-09-25 03:33:00,
2011-09-24 21:48:00,63.0,33.9,29.97,WNW,292,0.0,0.0,34,0.00,,,0.00,open2300-1.11,2011-09-25 03:48:00,
2011-09-24 22:03:00,62.4,33.5,29.97,WNW,292,0.0,0.0,34,0.00,,,0.00,open2300-1.11,2011-09-25 04:03:00,
2011-09-24 22:18:00,61.7,33.5,29.97,WNW,292,0.0,0.0,35,0.00,,,0.00,open2300-1.11,2011-09-25 04:18:00,
2011-09-24 22:33:00,61.5,33.4,29.97,WNW,292,0.0,0.0,35,0.00,,,0.00,open2300-1.11,2011-09-25 04:33:00,
2011-09-24 22:48:00,61.0,32.9,29.96,SE,135,0.0,0.0,35,0.00,,,0.00,open2300-1.11,2011-09-25 04:48:00,